This demonstration page uses our WeatherBlox Daily Observations layout. Learn more.

Left ArrowRight Arrow

Hourly Observations for May 8, 2020

Temp ( °F °C ) Dew Point ( °F °C ) Humidity (%) Winds ( mph kmh ) Pressure ( in mb ) Visibility ( mi km ) Precip ( " mm )
12:52 am 00:52 Cloudy with Light Rain 54 12.2 51 10.6 90 90 NE 9 15 29.84 1011 10 16 0.00 0.00
1:02 am 01:02 Cloudy with Light Rain 53 11.7 51 10.6 93 93 N 16 26 29.87 1012 10 16 0.00 0.00
1:07 am 01:07 Cloudy with Rain 53 11.7 51 10.6 93 93 N 22 35 29.88 1012 8 13 0.00 0.00
1:19 am 01:19 Cloudy with Nearby Thunderstorms 53 11.7 51 10.6 93 93 NNE 21 33 29.90 1013 3 4 0.06 1.52
1:34 am 01:34 Cloudy with Nearby Thunderstorms 52 11.1 51 10.6 97 97 NNE 16 26 29.91 1013 3 5 0.20 5.08
1:44 am 01:44 Cloudy with Rain 52 11.1 52 11.1 100 100 NNE 15 24 29.91 1013 4 6 0.26 6.60
1:52 am 01:52 Cloudy with Rain 52 11.1 52 11.1 100 100 NE 15 24 29.88 1012 6 10 0.29 7.37
2:00 am 02:00 Cloudy with Light Rain 52 11.1 51 10.6 97 97 ENE 14 22 29.90 1012 8 13 0.01 0.25
2:52 am 02:52 Cloudy 53 11.7 52 11.1 96 96 E 10 17 29.85 1011 10 16 0.08 2.03
3:47 am 03:47 Cloudy 52 11 52 11 100 100 NE 6 9 29.90 1012 10 16 0.00 0.00
3:52 am 03:52 Cloudy 52 11.1 52 11.1 100 100 NE 7 11 29.87 1012 10 16 0.00 0.00
4:09 am 04:09 Cloudy 52 11.1 51 10.6 97 97 E 10 17 29.86 1011 10 16 0.00 0.00
4:52 am 04:52 Mostly Cloudy 52 11.1 51 10.6 97 97 SE 8 13 29.81 1010 10 16 0.00 0.00
5:08 am 05:08 Mostly Cloudy with Light Rain 52 11.1 51 10.6 97 97 E 7 11 29.83 1010 10 16 0.00 0.00
5:26 am 05:26 Cloudy with Light Rain 52 11.1 52 11.1 100 100 NNW 10 17 29.87 1011 10 16 0.00 0.00
5:52 am 05:52 Cloudy 52 11.1 52 11.1 100 100 NNW 6 9 29.85 1011 10 16 0.00 0.00
6:44 am 06:44 Cloudy 52 11.1 52 11.1 100 100 NNW 12 19 29.91 1013 10 16 0.00 0.00
6:52 am 06:52 Cloudy 52 11.1 51 10.6 97 97 N 15 24 29.89 1012 10 16 0.00 0.00
7:12 am 07:12 Cloudy with Light Rain 52 11.1 51 10.6 97 97 N 14 22 29.92 1013 4 6 0.00 0.00
7:52 am 07:52 Cloudy with Light Rain 52 11.1 52 11.1 100 100 NNW 16 26 29.93 1014 3 4 0.02 0.51
8:15 am 08:15 Cloudy with Light Rain 51 10.6 49 9.4 92 92 N 25 41 29.97 1015 5 8 0.02 0.51
8:52 am 08:52 Cloudy 50 10 47 8.3 89 89 N 26 43 29.97 1015 10 16 0.03 0.76
9:16 am 09:16 Cloudy 51 10.6 46 7.8 83 83 N 24 39 30.01 1016 10 16 0.00 0.00
9:52 am 09:52 Mostly Cloudy 50 10 44 6.7 80 80 NNE 23 37 30.04 1017 10 16 0.00 0.00
10:21 am 10:21 Mostly Cloudy 54 12.2 45 7.2 72 72 NE 21 33 30.05 1018 10 16 0.00 0.00
10:39 am 10:39 Mostly Cloudy 53 11.7 45 7.2 74 74 NNE 16 26 30.07 1018 10 16 0.00 0.00
10:52 am 10:52 Cloudy 53 11.7 44 6.7 72 72 N 22 35 30.07 1018 10 16 0.00 0.00
11:05 am 11:05 Cloudy 53 11.7 44 6.7 72 72 N 21 33 30.08 1019 10 16 0.00 0.00
11:31 am 11:31 Mostly Cloudy 56 13.3 45 7.2 67 67 N 17 28 30.09 1019 10 16 0.00 0.00
11:52 am 11:52 Partly Cloudy 56 13.3 43 6.1 62 62 N 20 31 30.09 1019 10 16 0.00 0.00
12:52 pm 12:52 Mostly Sunny 60 15.6 42 5.6 52 52 N 21 33 30.11 1020 10 16 0.00 0.00
1:52 pm 13:52 Partly Cloudy 60 15.6 41 5 50 50 N 18 30 30.12 1020 10 16 0.00 0.00
2:52 pm 14:52 Sunny 60 15.6 36 2.2 41 41 N 18 30 30.13 1020 10 16 0.00 0.00
3:52 pm 15:52 Sunny 61 16.1 38 3.3 43 43 N 16 26 30.13 1020 10 16 0.00 0.00
4:52 pm 16:52 Sunny 60 15.6 33 0.6 36 36 N 17 28 30.14 1021 10 16 0.00 0.00
5:52 pm 17:52 Sunny 58 14.4 35 1.7 42 42 NNW 17 28 30.15 1021 10 16 0.00 0.00
6:52 pm 18:52 Sunny 57 13.9 33 0.6 41 41 NNW 12 19 30.15 1021 10 16 0.00 0.00
7:52 pm 19:52 Sunny 53 11.7 33 0.6 47 47 N 12 19 30.16 1021 10 16 0.00 0.00
8:52 pm 20:52 Clear 49 9.4 33 0.6 55 55 N 8 13 30.18 1022 10 16 0.00 0.00
9:52 pm 21:52 Clear 47 8.3 34 1.1 61 61 N 6 9 30.21 1023 10 16 0.00 0.00
10:52 pm 22:52 Clear 45 7.2 34 1.1 66 66 Calm 30.23 1024 10 16 0.00 0.00
11:52 pm 23:52 Clear 40 4.4 35 1.7 83 83 Calm 30.23 1024 10 16 0.00 0.00

Powered by AerisWeather